DW8937 Weather Reports


Display with metric or nautical units.
time (UTC)temp
F
wind
direction
speed
MPH
gust
MPH
rain 1hr
in
rain 24hr
in
rain mn
in
humidity
%
barometer
mb
20181115182704 44 207 7.0 14.0 0.00 0.00 0.00 79 1031.6
20181115182205 44 202 7.0 14.0 0.00 0.00 0.00 79 1031.7
20181115181704 44 173 7.0 12.0 0.00 0.00 0.00 79 1031.6
20181115181204 44 203 6.0 12.0 0.00 0.00 0.00 79 1031.5
20181115180704 44 206 7.0 12.0 0.00 0.00 0.00 79 1031.6
20181115180204 44 193 7.0 12.0 0.00 0.00 0.00 79 1031.5
20181115175704 44 178 7.0 14.0 0.00 0.00 0.00 79 1031.5
20181115175205 44 223 7.0 14.0 0.00 0.00 0.00 79 1031.6
20181115174704 44 188 6.0 12.0 0.00 0.00 0.00 79 1031.6
20181115174205 44 200 5.0 12.0 0.00 0.00 0.00 79 1031.6
20181115173704 44 198 6.0 12.0 0.00 0.00 0.00 79 1031.6
20181115173204 44 181 7.0 13.0 0.00 0.00 0.00 79 1031.5
20181115172705 44 221 7.0 13.0 0.00 0.00 0.00 79 1031.4
20181115172205 44 202 7.0 13.0 0.00 0.00 0.00 79 1031.3
20181115171704 44 206 7.0 13.0 0.00 0.00 0.00 79 1031.4
20181115171205 44 180 6.0 12.0 0.00 0.00 0.00 79 1031.3
20181115170704 44 207 6.0 12.0 0.00 0.00 0.00 79 1031.2
20181115170204 44 209 6.0 12.0 0.00 0.00 0.00 79 1031.1
20181115165704 44 187 7.0 11.0 0.00 0.00 0.00 79 1031.0
20181115165205 44 219 7.0 11.0 0.00 0.00 0.00 79 1031.1
20181115164704 44 194 6.0 11.0 0.00 0.00 0.00 79 1031.0
20181115164204 44 208 6.0 12.0 0.00 0.00 0.00 79 1031.0
20181115163705 44 194 6.0 12.0 0.00 0.00 0.00 79 1031.1
20181115163204 44 188 7.0 12.0 0.00 0.00 0.00 79 1031.0
20181115162704 44 171 7.0 12.0 0.00 0.00 0.00 79 1031.0
20181115162217 45 202 6.0 13.0 0.00 0.00 0.00 79 1031.1
20181115161705 45 173 7.0 13.0 0.00 0.00 0.00 79 1031.2
20181115161205 45 187 7.0 17.0 0.00 0.00 0.00 79 1031.2
20181115160704 45 188 6.0 17.0 0.00 0.00 0.00 79 1031.2
20181115160205 45 196 7.0 17.0 0.00 0.00 0.00 79 1031.3
20181115155705 45 172 7.0 11.0 0.00 0.00 0.00 79 1031.2
20181115155205 45 186 6.0 11.0 0.00 0.00 0.00 79 1031.2
20181115154705 45 190 6.0 12.0 0.00 0.00 0.00 79 1031.3
20181115154205 45 184 6.0 12.0 0.00 0.00 0.00 79 1031.2
20181115153705 45 216 6.0 12.0 0.00 0.00 0.00 79 1031.1
20181115153204 45 188 6.0 12.0 0.00 0.00 0.00 79 1031.1
20181115152704 45 205 5.0 12.0 0.00 0.00 0.00 79 1031.1
20181115152204 45 207 6.0 12.0 0.00 0.00 0.00 79 1031.1
20181115151704 45 184 5.0 13.0 0.00 0.00 0.00 79 1031.1
20181115151205 45 202 6.0 13.0 0.00 0.00 0.00 79 1031.2
20181115150705 45 219 6.0 13.0 0.00 0.00 0.00 79 1031.2
20181115150205 45 213 5.0 13.0 0.00 0.00 0.00 79 1031.0
20181115145705 45 214 6.0 13.0 0.00 0.00 0.00 79 1031.1
20181115145205 45 205 6.0 12.0 0.00 0.00 0.00 79 1031.0
20181115144704 45 196 6.0 12.0 0.00 0.00 0.00 79 1031.0
20181115144204 45 214 6.0 12.0 0.00 0.00 0.00 79 1031.0
20181115143704 45 205 6.0 11.0 0.00 0.00 0.00 79 1031.2
20181115143204 45 215 6.0 12.0 0.00 0.00 0.00 79 1031.1
20181115142704 45 210 6.0 12.0 0.00 0.00 0.00 79 1031.1
20181115142204 45 202 7.0 12.0 0.00 0.00 0.00 79 1031.1
20181115141705 45 215 6.0 11.0 0.00 0.00 0.00 79 1031.1
20181115141204 45 241 6.0 11.0 0.00 0.00 0.00 79 1031.0
20181115140704 45 200 6.0 11.0 0.00 0.00 0.00 79 1031.0
20181115140204 46 193 6.0 10.0 0.00 0.00 0.00 79 1031.0
20181115135704 46 202 6.0 11.0 0.00 0.00 0.00 79 1031.1
20181115135205 46 214 6.0 11.0 0.00 0.00 0.00 79 1031.0
20181115134704 46 198 5.0 11.0 0.00 0.00 0.00 79 1030.9
20181115134204 46 196 6.0 10.0 0.00 0.00 0.00 79 1030.9
20181115133704 46 200 6.0 12.0 0.00 0.00 0.00 79 1030.8
20181115133205 45 202 5.0 12.0 0.00 0.00 0.00 79 1030.8
20181115132705 46 191 6.0 12.0 0.00 0.00 0.00 79 1030.7
20181115132205 46 210 7.0 12.0 0.00 0.00 0.00 79 1030.6
20181115131704 46 197 7.0 13.0 0.00 0.00 0.00 79 1030.5
20181115131204 46 200 7.0 13.0 0.00 0.00 0.00 79 1030.5
20181115130704 46 211 7.0 13.0 0.00 0.00 0.00 79 1030.5
20181115130205 46 197 8.0 13.0 0.00 0.00 0.00 79 1030.5
20181115125704 46 196 7.0 13.0 0.00 0.00 0.00 79 1030.5
20181115125205 46 166 7.0 13.0 0.00 0.00 0.00 79 1030.5
20181115124704 46 211 7.0 13.0 0.00 0.00 0.00 79 1030.5
20181115124204 46 225 6.0 12.0 0.00 0.00 0.00 79 1030.4
20181115123704 46 198 7.0 12.0 0.00 0.00 0.00 79 1030.4
20181115123205 46 185 6.0 12.0 0.00 0.00 0.00 79 1030.3
20181115122705 46 205 6.0 10.0 0.00 0.00 0.00 79 1030.3
20181115122204 46 205 6.0 10.0 0.00 0.00 0.00 79 1030.4
20181115121704 46 199 6.0 12.0 0.00 0.00 0.00 79 1030.3
20181115121205 46 190 6.0 12.0 0.00 0.00 0.00 79 1030.3
20181115120705 46 194 6.0 12.0 0.00 0.00 0.00 79 1030.3
20181115120205 46 196 6.0 12.0 0.00 0.00 0.00 79 1030.3
20181115115705 46 205 6.0 13.0 0.00 0.00 0.00 79 1030.3
20181115115205 46 198 6.0 13.0 0.00 0.00 0.00 79 1030.3
20181115114704 46 198 6.0 12.0 0.00 0.00 0.00 79 1030.3
20181115114204 46 196 7.0 12.0 0.00 0.00 0.00 79 1030.3
20181115113705 46 226 6.0 12.0 0.00 0.00 0.00 79 1030.2
20181115113205 46 197 6.0 12.0 0.00 0.00 0.00 79 1030.3
20181115112704 46 215 7.0 12.0 0.00 0.00 0.00 79 1030.2
20181115112205 45 200 7.0 12.0 0.00 0.00 0.00 79 1030.1
20181115111704 45 204 7.0 16.0 0.00 0.00 0.00 79 1030.1
20181115111205 45 200 8.0 16.0 0.00 0.00 0.00 79 1030.1
20181115110704 45 190 8.0 16.0 0.00 0.00 0.00 79 1030.1
20181115110204 45 229 7.0 12.0 0.00 0.00 0.00 79 1030.1
20181115105704 45 196 7.0 12.0 0.00 0.00 0.00 79 1030.0
20181115105204 45 196 7.0 12.0 0.00 0.00 0.00 79 1030.0
20181115104714 45 190 6.0 11.0 0.00 0.00 0.00 79 1029.9
20181115104204 45 237 6.0 12.0 0.00 0.00 0.00 79 1029.8
20181115103704 45 211 7.0 12.0 0.00 0.00 0.00 79 1029.8
20181115103204 45 200 8.0 12.0 0.00 0.00 0.00 79 1029.8
20181115102705 45 191 8.0 12.0 0.00 0.00 0.00 79 1029.8
20181115102204 45 200 7.0 12.0 0.00 0.00 0.00 79 1029.8
20181115101704 45 180 7.0 10.0 0.00 0.00 0.00 79 1029.9
20181115101204 45 190 7.0 10.0 0.00 0.00 0.00 79 1029.9
20181115100705 45 198 6.0 9.0 0.00 0.00 0.00 79 1029.8
20181115100204 45 212 6.0 12.0 0.00 0.00 0.00 79 1029.8
20181115095704 45 202 6.0 12.0 0.00 0.00 0.00 79 1029.8
20181115095204 45 211 7.0 12.0 0.00 0.00 0.00 79 1029.8
20181115094704 45 200 7.0 12.0 0.00 0.00 0.00 79 1029.8
20181115094205 45 209 6.0 12.0 0.00 0.00 0.00 79 1029.8
20181115093705 45 201 6.0 11.0 0.00 0.00 0.00 79 1029.8
20181115093204 45 215 6.0 9.0 0.00 0.00 0.00 79 1029.8
20181115092704 45 192 5.0 11.0 0.00 0.00 0.00 79 1029.7
20181115092205 45 206 5.0 11.0 0.00 0.00 0.00 79 1029.6
20181115091705 45 207 5.0 11.0 0.00 0.00 0.00 79 1029.6
20181115091204 45 242 6.0 11.0 0.00 0.00 0.00 79 1029.6
20181115090705 45 211 6.0 10.0 0.00 0.00 0.00 79 1029.6
20181115090205 45 205 6.0 10.0 0.00 0.00 0.00 79 1029.6
20181115085705 45 197 5.0 10.0 0.00 0.00 0.00 79 1029.6
20181115085205 45 190 5.0 10.0 0.00 0.00 0.00 79 1029.5
20181115084705 45 211 6.0 10.0 0.00 0.00 0.00 79 1029.5
20181115084205 45 196 6.0 10.0 0.00 0.00 0.00 79 1029.5
20181115083705 45 208 5.0 10.0 0.00 0.00 0.00 79 1029.4
20181115083205 45 197 5.0 10.0 0.00 0.00 0.00 79 1029.4
20181115082704 45 198 6.0 12.0 0.00 0.00 0.00 79 1029.4
20181115082205 45 205 5.0 12.0 0.00 0.00 0.00 79 1029.3
20181115081704 45 198 5.0 12.0 0.00 0.00 0.00 79 1029.3
20181115081205 45 193 5.0 9.0 0.00 0.00 0.00 79 1029.2
20181115080704 45 205 5.0 9.0 0.00 0.00 0.00 79 1029.1
20181115080205 45 178 5.0 9.0 0.00 0.00 0.00 79 1029.0
20181115075704 45 186 5.0 9.0 0.00 0.00 0.00 79 1028.9
20181115075204 45 221 6.0 11.0 0.00 0.00 0.00 79 1028.8
20181115074704 45 258 6.0 11.0 0.00 0.00 0.00 79 1028.8
20181115074204 45 188 5.0 11.0 0.00 0.00 0.00 79 1028.7
20181115073705 45 224 4.0 9.0 0.00 0.00 0.00 79 1028.7
20181115073204 44 209 4.0 9.0 0.00 0.00 0.00 79 1028.6
20181115072704 44 221 5.0 10.0 0.00 0.00 0.00 79 1028.5
20181115072204 44 215 6.0 10.0 0.00 0.00 0.00 79 1028.5
20181115071704 44 225 6.0 8.0 0.00 0.00 0.00 79 1028.5
20181115071205 44 203 5.0 8.0 0.00 0.00 0.00 79 1028.5
20181115070705 44 214 5.0 8.0 0.00 0.00 0.00 79 1028.5
20181115070204 44 205 5.0 8.0 0.00 0.00 0.00 79 1028.5
20181115065704 44 217 4.0 8.0 0.00 0.00 0.00 79 1028.4
20181115065204 44 219 5.0 8.0 0.00 0.00 0.00 79 1028.4
20181115064704 44 219 5.0 8.0 0.00 0.00 0.00 79 1028.5
20181115064232 44 219 4.0 7.0 0.00 0.00 0.00 79 1028.4
20181115063704 44 212 4.0 7.0 0.00 0.00 0.00 78 1028.4
20181115063204 44 212 4.0 6.0 0.00 0.00 0.00 78 1028.4
20181115062705 44 202 3.0 7.0 0.00 0.00 0.00 78 1028.4
20181115062205 44 202 4.0 7.0 0.00 0.00 0.00 78 1028.4
20181115061704 44 202 4.0 7.0 0.00 0.00 0.00 78 1028.3
20181115061205 44 199 4.0 9.0 0.00 0.00 0.00 78 1028.3
20181115060705 44 199 5.0 9.0 0.00 0.00 0.00 78 1028.3
20181115060205 44 200 5.0 7.0 0.00 0.00 0.00 78 1028.1
20181115055704 44 209 4.0 7.0 0.00 0.00 0.00 78 1028.1
20181115055205 44 207 5.0 7.0 0.00 0.00 0.00 78 1028.1
20181115054704 44 207 4.0 7.0 0.00 0.00 0.00 78 1028.1
20181115054204 44 207 4.0 7.0 0.00 0.00 0.00 78 1028.0
20181115053705 44 207 3.0 7.0 0.00 0.00 0.00 78 1028.1
20181115053204 44 207 3.0 7.0 0.00 0.00 0.00 78 1028.0
20181115052705 44 207 4.0 7.0 0.00 0.00 0.00 78 1027.9
20181115052204 44 207 4.0 7.0 0.00 0.00 0.00 78 1027.9
20181115051704 44 208 4.0 7.0 0.00 0.00 0.00 78 1027.8
20181115051204 44 205 3.0 7.0 0.00 0.00 0.00 78 1027.7
20181115050705 44 198 3.0 7.0 0.00 0.00 0.00 78 1027.6
20181115050205 44 198 4.0 7.0 0.00 0.00 0.00 78 1027.5
20181115045705 44 198 3.0 9.0 0.00 0.00 0.00 78 1027.5
20181115045205 44 198 3.0 9.0 0.00 0.00 0.00 77 1027.5
20181115044705 43 198 4.0 9.0 0.00 0.00 0.00 77 1027.4
20181115044205 43 198 4.0 9.0 0.00 0.00 0.00 77 1027.4
20181115043704 43 210 5.0 9.0 0.00 0.00 0.00 77 1027.3
20181115043205 44 208 4.0 9.0 0.00 0.00 0.00 77 1027.1
20181115042705 44 200 4.0 7.0 0.00 0.00 0.00 78 1027.2
20181115042205 44 205 4.0 7.0 0.00 0.00 0.00 78 1027.2
20181115041704 44 225 4.0 7.0 0.00 0.00 0.00 78 1027.2
20181115041204 44 197 4.0 7.0 0.00 0.00 0.00 78 1027.2
20181115040705 44 211 5.0 7.0 0.00 0.00 0.00 78 1027.2
20181115040204 44 201 4.0 7.0 0.00 0.00 0.00 77 1027.2
20181115035704 44 197 3.0 5.0 0.00 0.00 0.00 77 1027.2
20181115035205 44 225 2.0 5.0 0.00 0.00 0.00 77 1027.2
20181115034705 44 225 2.0 8.0 0.00 0.00 0.00 78 1027.2
20181115034205 44 225 4.0 8.0 0.00 0.01 0.00 78 1027.2
20181115033704 44 225 4.0 9.0 0.00 0.01 0.00 78 1027.2
20181115033204 44 235 4.0 9.0 0.00 0.01 0.00 78 1027.2
20181115032704 44 202 4.0 10.0 0.00 0.01 0.00 78 1027.2
20181115032204 44 211 3.0 10.0 0.00 0.01 0.00 78 1027.3
20181115031704 44 212 5.0 10.0 0.00 0.01 0.00 78 1027.3
20181115031205 44 202 5.0 9.0 0.00 0.01 0.00 78 1027.3
20181115030705 44 208 5.0 9.0 0.00 0.01 0.00 78 1027.3
20181115030205 44 211 4.0 8.0 0.00 0.01 0.00 78 1027.2
20181115025704 44 207 4.0 8.0 0.00 0.01 0.00 79 1027.1
20181115025204 44 229 4.0 9.0 0.00 0.01 0.00 79 1027.0
20181115024704 44 230 5.0 9.0 0.00 0.01 0.00 79 1026.9
20181115024205 45 224 4.0 9.0 0.00 0.01 0.00 79 1026.9
20181115023704 45 229 3.0 6.0 0.00 0.01 0.00 79 1026.7
20181115023205 45 226 3.0 6.0 0.00 0.01 0.00 79 1026.7
20181115022704 45 225 3.0 6.0 0.00 0.01 0.00 79 1026.7
20181115022204 45 225 3.0 6.0 0.00 0.01 0.00 79 1026.6
20181115021705 45 224 3.0 6.0 0.00 0.01 0.00 79 1026.6
20181115021205 45 221 3.0 7.0 0.00 0.01 0.00 79 1026.4
20181115020704 45 220 4.0 7.0 0.00 0.01 0.00 79 1026.3
20181115020204 45 243 3.0 7.0 0.00 0.01 0.00 79 1026.3
20181115015704 45 245 2.0 9.0 0.00 0.01 0.00 79 1026.3
20181115015205 45 245 4.0 9.0 0.00 0.01 0.00 79 1026.3
20181115014704 45 245 5.0 10.0 0.00 0.01 0.00 79 1026.3
20181115014204 45 238 5.0 10.0 0.00 0.01 0.00 79 1026.2
20181115013704 45 251 5.0 10.0 0.00 0.01 0.00 79 1026.3
20181115013204 45 238 5.0 9.0 0.00 0.01 0.00 79 1026.2
20181115012704 45 257 4.0 8.0 0.00 0.01 0.00 79 1026.1
20181115012204 45 259 4.0 7.0 0.00 0.01 0.00 79 1026.1
20181115011705 45 238 4.0 7.0 0.00 0.01 0.00 79 1026.0
20181115011205 45 242 3.0 6.0 0.00 0.01 0.00 79 1026.0
20181115010704 45 275 1.0 4.0 0.00 0.01 0.00 79 1025.9
20181115010204 45 275 1.0 4.0 0.00 0.01 0.00 79 1025.8
20181115005705 45 275 1.0 4.0 0.00 0.01 0.00 79 1025.8
20181115005205 45 275 1.0 4.0 0.00 0.01 0.00 79 1025.8
20181115004704 45 275 1.0 4.0 0.00 0.01 0.00 79 1025.8
20181115004205 45 275 1.0 5.0 0.00 0.01 0.00 79 1025.8
20181115003704 45 275 1.0 7.0 0.00 0.01 0.00 79 1025.8
20181115003204 45 275 3.0 7.0 0.00 0.01 0.00 79 1025.7
20181115002705 44 274 3.0 6.0 0.00 0.01 0.00 79 1025.7
20181115002205 44 284 2.0 6.0 0.00 0.01 0.00 79 1025.6
20181115001704 44 284 3.0 6.0 0.00 0.01 0.00 79 1025.7
20181115001204 44 284 1.0 3.0 0.00 0.01 0.00 79 1025.6
20181115000704 44 315 0.0 1.0 0.00 0.01 0.00 79 1025.6
20181115000204 44 315 0.0 1.0 0.00 0.01 0.00 79 1025.4
20181114235704 44 315 0.0 2.0 0.00 0.01 0.00 79 1025.4
20181114235205 44 315 0.0 4.0 0.00 0.01 0.00 79 1025.4
20181114234704 44 315 1.0 5.0 0.00 0.01 0.00 79 1025.4
20181114234204 44 315 2.0 5.0 0.00 0.01 0.00 79 1025.4
20181114233705 44 315 2.0 5.0 0.00 0.01 0.00 79 1025.4
20181114232704 44 315 1.0 4.0 0.00 0.01 0.00 79 1025.3
20181114232205 44 315 0.0 3.0 0.00 0.01 0.00 79 1025.3
20181114231704 44 315 0.0 3.0 0.00 0.01 0.00 79 1025.3
20181114231205 44 315 1.0 4.0 0.00 0.01 0.00 79 1025.3
20181114230704 44 315 1.0 5.0 0.00 0.01 0.00 79 1025.3
20181114230205 44 315 2.0 5.0 0.00 0.01 0.00 79 1025.2
20181114225704 44 315 3.0 6.0 0.00 0.01 0.00 79 1025.3
20181114225204 44 315 3.0 6.0 0.00 0.01 0.00 79 1025.2
20181114224705 44 315 2.0 4.0 0.00 0.01 0.00 79 1025.2
20181114224205 44 313 0.0 3.0 0.00 0.01 0.00 79 1025.2
20181114223705 44 313 0.0 4.0 0.00 0.01 0.00 79 1025.1
20181114223205 44 313 0.0 4.0 0.00 0.01 0.00 79 1025.2
20181114222704 44 313 1.0 4.0 0.00 0.01 0.00 79 1025.0
20181114222205 44 313 1.0 4.0 0.00 0.01 0.00 79 1024.9
20181114221704 44 313 1.0 4.0 0.00 0.01 0.00 79 1024.8
20181114221204 44 313 1.0 4.0 0.00 0.01 0.00 79 1024.8
20181114220706 44 313 1.0 3.0 0.00 0.01 0.00 79 1024.7
20181114220204 44 313 1.0 4.0 0.00 0.01 0.01 79 1024.7
20181114215704 44 313 1.0 4.0 0.00 0.01 0.01 79 1024.6
20181114215205 44 313 1.0 4.0 0.00 0.01 0.01 79 1024.5
20181114214704 44 313 0.0 3.0 0.00 0.01 0.01 79 1024.5
20181114214205 44 313 1.0 3.0 0.00 0.01 0.01 79 1024.5
20181114213704 44 313 1.0 4.0 0.00 0.01 0.01 79 1024.4
20181114213204 44 313 1.0 4.0 0.00 0.01 0.01 79 1024.4
20181114212704 44 313 2.0 4.0 0.00 0.01 0.01 79 1024.3
20181114212205 44 313 2.0 4.0 0.00 0.01 0.01 79 1024.3
20181114211704 44 313 1.0 2.0 0.00 0.01 0.01 79 1024.3
20181114211205 44 313 1.0 2.0 0.00 0.01 0.01 79 1024.3
20181114210704 44 313 1.0 3.0 0.00 0.01 0.01 79 1024.2
20181114210204 44 313 1.0 3.0 0.00 0.01 0.01 79 1024.2
20181114205704 44 313 2.0 5.0 0.00 0.01 0.01 79 1024.2
20181114205205 44 313 2.0 5.0 0.00 0.01 0.01 79 1024.2
20181114204704 44 313 2.0 5.0 0.00 0.01 0.01 79 1024.1
20181114204205 44 313 3.0 5.0 0.00 0.01 0.01 79 1024.1
20181114203704 44 313 3.0 5.0 0.00 0.01 0.01 79 1024.1
20181114203205 44 313 3.0 8.0 0.00 0.01 0.01 79 1024.0
20181114202704 44 313 3.0 8.0 0.00 0.01 0.01 79 1024.0
20181114202205 44 313 3.0 8.0 0.00 0.01 0.01 79 1024.0
20181114201704 44 313 4.0 7.0 0.00 0.01 0.01 79 1023.9
20181114201204 44 315 4.0 7.0 0.00 0.01 0.01 79 1023.9
20181114200704 44 320 3.0 6.0 0.00 0.01 0.01 79 1023.9
20181114200204 45 321 3.0 7.0 0.00 0.01 0.01 79 1023.9
20181114195704 45 306 3.0 8.0 0.00 0.01 0.01 79 1023.9
20181114195205 45 306 4.0 9.0 0.00 0.01 0.01 79 1023.8
20181114194705 44 309 4.0 9.0 0.00 0.01 0.01 79 1023.6
20181114194204 44 310 5.0 9.0 0.00 0.01 0.01 79 1023.6
20181114193704 44 320 5.0 8.0 0.00 0.01 0.01 79 1023.6
20181114193205 44 311 5.0 8.0 0.00 0.01 0.01 79 1023.5
20181114192704 44 309 4.0 8.0 0.00 0.01 0.01 79 1023.4
20181114192204 44 318 4.0 8.0 0.00 0.01 0.01 79 1023.4
20181114191704 45 319 4.0 8.0 0.00 0.01 0.01 79 1023.3
20181114191205 44 304 4.0 8.0 0.00 0.01 0.01 79 1023.2
20181114190704 44 317 4.0 6.0 0.00 0.01 0.01 79 1023.1
20181114190204 44 311 3.0 6.0 0.00 0.01 0.01 79 1023.0
20181114185704 44 312 3.0 6.0 0.00 0.01 0.01 79 1023.0
20181114185205 44 312 3.0 6.0 0.00 0.01 0.01 79 1022.9
20181114184705 44 312 2.0 6.0 0.00 0.01 0.01 79 1022.9
20181114184204 44 311 2.0 5.0 0.00 0.01 0.01 79 1022.9
20181114183705 44 311 2.0 4.0 0.00 0.01 0.01 79 1022.8
20181114183204 44 311 1.0 4.0 0.00 0.01 0.01 79 1022.8